Temp
9 9 10 10 11 11 11 11 12 12 12 13 13 13 14 14 15 15 16 16 17 17 18 18 18 18 18 19 21 23 23 22 23 23 23 23 23 25 23 25 26 26 25 26 24 25 25
7 8 9 9 10 10 10 11 11 12 12 12 13 13 14 14 15 15 16 16 17 18 18 18 18 18 18 17 23 23 23 23 23 23 23 23 23 26 26 26 24 27 26 22 23 24 24
6 7 8 8 9 10 10 10 11 11 12 12 13 13 14 14 15 15 16 17 17 18 18 18 18 17 17 21 22 23 23 23 23 23 23 24 24 25 26 23 26 27 25 20 20 22 23
5 6 6 7 8 8 9 10 10 11 11 12 13 13 14 14 15 16 16 17 17 18 18 18 18 17 18 22 23 22 22 22 22 23 23 24 24 25 25 25 25 23 19 18 21 21 23
5 5 5 6 7 8 8 9 10 10 11 11 12 13 14 14 15 16 17 17 17 17 18 18 18 18 18 22 22 23 23 23 23 23 23 24 24 24 24 21 19 20 19 19 20 21 21
5 5 5 5 5 6 7 8 9 10 10 11 12 12 13 14 15 16 17 17 17 17 17 17 17 16 20 22 22 23 23 23 24 24 24 24 24 20 19 19 18 20 20 19 20 22 22
5 5 5 5 5 5 5 6 7 9 9 10 11 12 13 14 15 15 17 17 17 16 16 18 20 20 22 23 23 23 23 24 24 24 21 23 19 18 19 20 23 22 22 19 21 22 22
5 4 4 5 5 5 5 5 5 7 9 10 10 11 12 13 14 15 14 14 13 13 13 18 19 19 21 21 22 23 23 23 23 20 22 21 19 21 23 24 24 23 23 22 21 23 23
4 4 4 4 4 5 5 4 5 5 7 9 10 11 12 13 14 14 13 13 12 13 13 18 21 21 21 21 21 22 23 23 22 21 21 19 21 24 24 23 23 23 23 23 23 23 24
3 4 4 4 4 4 4 4 4 4 5 8 9 10 11 13 13 13 13 13 14 13 12 19 21 22 21 22 21 22 23 23 22 21 21 21 23 23 24 24 24 22 24 25 24 21 20
2 3 3 4 4 4 4 4 4 4 4 6 8 9 10 10 12 12 11 13 14 13 9 20 22 23 22 21 23 22 23 23 20 21 21 20 22 22 22 24 24 23 25 24 24 20 20
2 2 3 3 4 4 4 4 4 4 4 4 7 8 9 9 12 12 13 13 13 9 10 19 22 22 21 22 22 23 23 23 23 21 21 21 25 23 23 24 24 25 24 22 21 20 17
1 1 2 3 3 4 4 4 4 3 4 4 5 7 8 9 11 11 12 13 10 8 18 20 20 21 20 20 21 21 21 20 19 18 18 20 21 23 24 23 24 24 19 16 17 16 16
1 1 1 2 2 3 4 4 4 3 3 3 4 6 8 9 10 10 11 10 8 13 17 23 22 21 20 21 20 20 20 19 19 20 18 18 18 21 23 22 22 22 19 14 18 16 17
0 1 1 1 2 2 3 3 4 3 3 3 4 6 7 10 10 9 9 6 8 14 19 19 20 21 20 21 20 20 19 19 19 19 18 18 19 23 24 23 22 20 19 20 18 18 18
-0 0 1 1 1 2 2 3 4 3 3 3 3 4 7 9 9 9 7 9 12 17 19 19 18 20 19 20 20 19 19 20 21 20 21 19 19 22 23 23 22 21 21 18 14 16 17
-1 -0 0 0 1 1 2 3 3 3 3 2 3 4 9 9 8 7 5 8 13 16 18 19 18 18 19 20 20 19 20 21 21 21 20 20 16 20 22 22 20 20 19 19 17 15 15
-1 -1 -0 0 0 1 2 2 3 3 2 2 3 3 9 9 7 8 7 11 14 16 17 16 18 17 17 17 18 19 20 20 21 22 21 20 16 16 19 21 22 20 19 18 12 16 15
-1 -1 -1 0 0 1 1 1 3 3 3 2 3 6 7 8 5 7 10 11 13 14 15 16 16 17 17 17 17 20 19 20 21 18 18 18 16 14 17 18 21 20 20 19 17 15 16
-1 -1 -1 -0 1 1 1 1 1 3 2 2 3 2 8 6 8 9 9 11 12 14 15 16 17 17 16 16 17 17 17 18 19 16 17 18 17 15 13 15 17 19 20 20 18 13 15
-1 -1 -1 -0 0 1 1 1 1 2 2 2 3 3 7 4 7 8 9 11 12 13 15 16 15 15 15 14 16 16 18 17 18 17 18 16 16 18 18 19 19 19 19 19 17 17 16
-1 -0 -1 -0 0 1 1 0 2 2 1 1 3 5 4 6 9 8 9 10 11 14 14 14 13 15 15 14 16 16 15 16 16 16 17 16 15 17 16 18 18 18 19 19 19 20 20
-1 -0 -0 -0 -0 0 0 0 1 2 0 0 3 3 2 5 7 8 8 10 12 14 15 16 14 13 15 15 14 14 15 15 15 15 15 15 14 14 13 17 17 14 17 18 18 19 18
-1 -0 -0 0 -0 0 0 -0 1 1 1 2 2 2 2 3 7 8 10 11 12 13 13 15 15 14 13 14 14 15 15 15 15 15 15 14 14 12 11 15 11 15 20 19 18 17 15
-1 -0 0 0 0 0 0 -0 0 1 1 1 2 1 2 3 7 8 9 11 10 11 12 10 9 10 12 13 11 12 8 12 14 14 15 14 12 9 9 11 13 16 17 18 17 15 13
-0 -0 0 0 0 0 0 -0 1 1 0 0 0 0 1 3 5 4 6 7 7 8 10 9 9 10 11 10 8 9 8 11 12 14 14 14 12 10 10 10 10 14 17 19 17 13 13
-1 -0 -0 -0 -0 0 -0 -0 1 0 -0 -1 0 1 1 2 3 3 5 5 7 7 7 8 9 10 11 6 5 8 9 13 12 12 13 11 10 9 7 9 11 15 16 18 14 10 12
-2 -1 -1 -0 0 0 0 0 0 1 0 -1 -0 0 1 1 2 2 3 4 6 5 6 8 6 7 6 6 7 7 8 10 12 13 14 12 9 6 7 8 8 12 14 12 11 12 12
-2 -1 -1 -0 0 0 0 0 1 0 -0 -2 -1 0 1 1 2 2 1 3 4 4 8 9 8 8 8 6 7 8 7 8 10 8 13 11 11 10 11 9 11 12 11 12 12 12 12
Height
1550 1549 1548 1548 1547 1546 1544 1543 1542 1541 1540 1539 1537 1535 1533 1532 1530 1528 1527 1524 1522 1521 1521 1521 1521 1521 1521 1520 1515 1513 1514 1517 1519 1520 1521 1522 1524 1522 1521 1517 1517 1513 1517 1515 1519 1522 1521
1549 1547 1546 1546 1545 1545 1543 1542 1540 1539 1539 1538 1536 1534 1533 1531 1529 1527 1524 1521 1520 1519 1519 1519 1519 1519 1520 1519 1511 1513 1514 1515 1517 1518 1520 1521 1521 1520 1519 1517 1517 1515 1515 1520 1520 1526 1519
1548 1546 1545 1544 1543 1542 1542 1541 1539 1538 1536 1535 1534 1533 1530 1529 1527 1525 1522 1519 1517 1516 1516 1516 1516 1517 1516 1511 1512 1512 1513 1513 1515 1517 1519 1518 1521 1520 1518 1517 1516 1513 1515 1522 1526 1525 1521
1546 1545 1543 1541 1540 1539 1538 1538 1537 1535 1534 1533 1532 1530 1528 1526 1524 1522 1520 1517 1515 1513 1514 1514 1515 1515 1511 1508 1508 1512 1513 1513 1515 1517 1517 1518 1520 1518 1518 1519 1517 1518 1525 1541 1527 1525 1526
1544 1543 1542 1540 1538 1537 1536 1535 1534 1533 1532 1531 1529 1528 1526 1525 1522 1520 1517 1515 1513 1512 1512 1512 1514 1515 1509 1506 1506 1507 1511 1512 1514 1516 1516 1519 1519 1519 1520 1525 1532 1528 1545 1539 1532 1524 1524
1541 1540 1539 1538 1536 1534 1533 1532 1531 1530 1529 1528 1527 1525 1524 1522 1521 1518 1515 1513 1512 1511 1511 1512 1513 1517 1506 1502 1503 1505 1508 1511 1513 1515 1516 1517 1519 1522 1524 1531 1549 1538 1538 1538 1538 1520 1518
1536 1536 1536 1535 1534 1533 1530 1529 1528 1527 1526 1525 1524 1523 1522 1520 1519 1517 1514 1512 1513 1513 1510 1505 1505 1500 1499 1500 1501 1502 1505 1508 1510 1512 1516 1516 1524 1532 1525 1519 1514 1518 1524 1533 1523 1511 1522
1531 1531 1531 1531 1530 1530 1529 1526 1524 1523 1523 1522 1521 1520 1519 1518 1517 1516 1515 1514 1514 1515 1508 1501 1499 1499 1498 1501 1500 1500 1504 1507 1507 1512 1512 1519 1524 1515 1512 1511 1512 1512 1517 1522 1515 1505 1511
1525 1525 1525 1525 1526 1526 1525 1524 1522 1520 1519 1519 1518 1517 1516 1515 1515 1515 1514 1515 1514 1513 1511 1493 1491 1492 1495 1500 1499 1498 1500 1502 1505 1510 1510 1520 1512 1508 1509 1509 1511 1511 1514 1512 1515 1506 1500
1518 1518 1518 1519 1520 1520 1521 1520 1519 1517 1515 1514 1514 1514 1513 1513 1516 1513 1514 1513 1512 1511 1514 1491 1483 1483 1491 1495 1495 1493 1496 1501 1504 1507 1508 1511 1503 1505 1506 1508 1506 1519 1503 1503 1508 1518 1534
1510 1510 1511 1511 1513 1514 1515 1515 1515 1514 1512 1510 1510 1511 1511 1511 1510 1511 1512 1511 1510 1511 1547 1479 1475 1478 1480 1487 1484 1485 1490 1496 1500 1502 1505 1508 1502 1503 1506 1502 1499 1508 1500 1504 1505 1518 1522
1503 1502 1502 1504 1504 1507 1509 1510 1510 1510 1509 1507 1506 1507 1508 1507 1506 1508 1508 1509 1510 1526 1530 1480 1470 1473 1478 1482 1482 1482 1485 1492 1494 1499 1498 1499 1495 1495 1497 1495 1495 1495 1501 1507 1511 1520 1546
1496 1495 1495 1496 1497 1499 1502 1503 1505 1506 1505 1504 1502 1502 1504 1504 1504 1504 1506 1508 1521 1531 1482 1474 1472 1470 1475 1478 1482 1482 1484 1489 1498 1511 1511 1501 1497 1491 1492 1498 1493 1497 1515 1548 1550 1553 1554
1489 1487 1487 1488 1488 1491 1494 1497 1499 1500 1501 1500 1498 1497 1497 1498 1502 1502 1504 1509 1523 1491 1479 1459 1461 1465 1474 1475 1478 1480 1484 1490 1486 1493 1506 1513 1520 1494 1488 1494 1501 1502 1513 1548 1551 1556 1540
1482 1480 1480 1481 1482 1483 1484 1488 1492 1494 1496 1495 1494 1492 1489 1493 1498 1500 1503 1515 1497 1481 1470 1468 1465 1467 1470 1469 1473 1477 1481 1484 1482 1486 1505 1506 1505 1482 1482 1483 1490 1503 1514 1507 1525 1522 1535
1475 1473 1472 1473 1474 1476 1478 1479 1485 1489 1491 1491 1489 1487 1482 1490 1493 1497 1500 1489 1478 1470 1466 1469 1476 1467 1471 1468 1472 1475 1478 1471 1476 1477 1480 1490 1505 1482 1479 1476 1482 1491 1494 1522 1532 1546 1545
1467 1466 1465 1465 1466 1468 1471 1470 1476 1482 1486 1487 1487 1484 1477 1483 1490 1493 1494 1482 1474 1469 1468 1468 1469 1471 1464 1465 1464 1469 1470 1467 1465 1469 1473 1480 1496 1491 1483 1484 1491 1496 1503 1506 1515 1527 1544
1459 1458 1457 1458 1459 1460 1462 1466 1468 1475 1480 1483 1483 1482 1472 1475 1485 1481 1479 1473 1471 1468 1467 1469 1466 1468 1471 1467 1467 1466 1464 1461 1460 1462 1471 1472 1486 1502 1489 1480 1477 1482 1494 1501 1537 1528 1523
1452 1450 1450 1450 1452 1453 1455 1458 1460 1465 1472 1478 1477 1475 1473 1471 1477 1473 1470 1469 1470 1469 1465 1465 1466 1465 1467 1468 1475 1458 1457 1460 1459 1463 1469 1472 1488 1512 1501 1490 1481 1487 1488 1494 1502 1511 1520
1443 1443 1443 1443 1445 1447 1449 1450 1452 1458 1466 1472 1474 1472 1468 1467 1464 1465 1468 1464 1465 1465 1464 1463 1464 1463 1467 1468 1465 1465 1467 1462 1462 1465 1468 1469 1479 1494 1512 1502 1492 1492 1487 1487 1497 1522 1518
1435 1435 1436 1436 1438 1440 1442 1445 1449 1452 1459 1467 1469 1464 1458 1462 1458 1461 1464 1459 1459 1458 1459 1459 1459 1462 1464 1472 1466 1466 1462 1466 1465 1466 1468 1473 1485 1480 1482 1483 1483 1485 1488 1488 1495 1498 1510
1428 1428 1429 1430 1431 1433 1435 1438 1442 1445 1453 1460 1463 1462 1458 1455 1453 1457 1458 1456 1455 1451 1451 1454 1460 1459 1460 1465 1463 1465 1462 1465 1465 1468 1470 1472 1486 1480 1487 1483 1483 1486 1483 1484 1485 1486 1487
1421 1421 1423 1424 1425 1427 1429 1432 1437 1438 1445 1448 1457 1458 1463 1455 1450 1453 1451 1452 1448 1448 1446 1449 1454 1459 1458 1460 1460 1463 1463 1465 1465 1467 1474 1477 1483 1490 1500 1486 1488 1499 1483 1481 1482 1482 1484
1415 1416 1417 1419 1420 1423 1425 1427 1430 1434 1440 1448 1452 1457 1461 1456 1450 1447 1446 1447 1446 1445 1447 1446 1449 1454 1459 1461 1462 1464 1466 1467 1468 1469 1472 1480 1482 1490 1504 1491 1519 1486 1471 1475 1479 1483 1483
1410 1410 1411 1413 1415 1418 1421 1423 1428 1432 1438 1444 1450 1454 1457 1455 1448 1445 1445 1443 1444 1445 1445 1449 1453 1455 1457 1460 1467 1471 1480 1475 1473 1473 1474 1477 1485 1503 1510 1507 1492 1480 1477 1477 1482 1488 1485
1405 1405 1406 1408 1410 1413 1417 1421 1423 1430 1435 1442 1448 1451 1454 1454 1451 1452 1450 1448 1450 1452 1452 1455 1457 1456 1457 1461 1470 1478 1488 1478 1479 1474 1473 1478 1481 1496 1502 1510 1508 1481 1475 1473 1472 1492 1488
1402 1402 1402 1404 1407 1410 1413 1417 1421 1425 1432 1440 1446 1449 1451 1452 1452 1450 1450 1450 1448 1451 1454 1455 1457 1459 1458 1466 1480 1479 1478 1468 1478 1477 1476 1481 1487 1496 1505 1507 1490 1475 1472 1472 1488 1501 1489
1400 1399 1399 1401 1403 1406 1408 1412 1416 1423 1429 1437 1444 1447 1449 1451 1452 1454 1452 1451 1451 1454 1453 1453 1458 1461 1463 1471 1475 1477 1477 1473 1472 1468 1468 1476 1490 1500 1500 1505 1502 1477 1475 1484 1490 1488 1489
1397 1396 1397 1398 1399 1402 1405 1409 1410 1419 1427 1437 1444 1446 1449 1454 1455 1454 1454 1454 1453 1453 1452 1453 1456 1457 1462 1468 1472 1472 1479 1473 1473 1483 1463 1476 1472 1479 1481 1486 1480 1480 1482 1486 1487 1487 1488
Wind_Speed
17 16 14 13 13 12 11 11 11 12 12 12 12 13 13 13 13 13 13 14 13 11 10 10 11 10 8 5 13 2 13 15 13 14 18 16 17 17 8 9 14 4 0 3 20 5 10
19 19 18 16 14 14 13 13 13 12 12 12 13 13 13 13 13 14 14 14 13 11 9 9 10 10 7 6 1 6 6 14 13 18 18 13 14 18 15 12 9 6 4 18 13 8 8
21 20 19 20 19 16 15 15 14 14 14 13 13 14 14 14 14 14 14 14 13 11 8 8 9 10 11 19 2 3 7 10 13 19 18 11 15 12 8 10 20 21 2 13 10 8 4
21 21 21 21 21 22 19 16 16 15 15 14 14 14 15 15 15 15 14 14 12 7 6 6 7 9 10 7 15 13 10 6 10 15 16 13 15 8 4 14 11 7 7 5 4 7 5
22 22 22 22 22 22 22 21 18 17 16 15 15 14 14 14 14 15 14 13 8 3 3 4 5 7 10 6 14 12 16 14 11 13 17 16 5 4 8 4 6 6 3 3 7 11 5
23 23 23 22 22 22 22 22 23 20 18 17 15 15 14 13 13 14 13 11 5 1 2 5 7 4 13 14 14 18 16 17 19 16 16 9 1 1 4 1 6 4 3 2 3 4 11
26 25 24 23 23 23 23 22 22 23 21 18 17 15 14 13 11 11 11 5 3 1 7 10 8 10 5 9 6 15 17 15 15 18 6 13 3 6 12 11 14 6 7 9 6 14 2
26 27 26 25 25 24 23 23 22 22 22 20 18 16 14 12 9 5 8 4 5 6 10 18 24 26 23 10 4 15 17 16 7 6 9 4 8 10 12 13 12 8 7 7 9 9 14
29 28 28 28 27 26 24 23 23 21 21 21 18 16 14 10 7 2 1 3 5 4 6 11 19 25 22 14 6 14 17 16 7 7 8 8 11 17 16 12 9 7 5 4 3 7 8
34 31 30 30 29 27 27 24 23 22 20 20 19 16 14 10 6 2 5 6 5 3 2 6 8 14 26 16 9 26 23 20 7 10 9 8 21 16 13 13 8 6 6 4 5 5 2
30 35 32 31 30 29 29 26 23 21 21 18 19 16 11 9 5 4 6 5 4 1 4 7 10 8 19 23 5 12 25 28 13 10 7 12 10 8 6 6 5 6 5 3 3 6 6
29 30 37 33 30 31 32 28 26 23 21 20 17 16 13 11 13 8 10 3 1 6 7 5 8 8 6 21 13 6 22 25 25 8 9 9 18 6 7 8 6 2 3 7 6 3 4
28 29 30 35 33 29 29 31 27 24 21 20 18 15 16 16 9 13 9 3 4 5 5 6 6 9 8 8 13 5 11 7 9 9 11 9 10 12 12 5 3 2 6 3 4 3 6
30 29 29 30 32 39 32 29 30 24 22 19 19 18 18 22 16 12 6 2 5 8 10 3 6 11 12 11 13 12 7 8 7 7 5 9 8 9 8 8 5 4 7 5 4 4 5
30 30 28 29 28 30 32 28 31 24 22 18 18 18 20 20 17 12 6 3 8 6 12 9 10 3 8 12 9 12 9 11 10 10 8 6 10 10 14 8 12 8 3 7 6 4 1
31 30 30 30 28 29 36 30 27 25 21 17 16 15 24 12 17 18 3 8 7 6 14 8 4 6 7 9 10 12 11 8 8 12 17 7 5 6 6 11 9 9 5 2 3 5 3
30 29 30 30 28 27 31 27 29 26 22 15 12 6 12 22 17 12 6 7 8 20 18 4 5 6 7 6 9 7 9 11 12 14 15 12 7 13 4 3 8 3 3 2 3 5 5
29 28 28 29 27 27 29 31 31 29 23 15 6 3 8 31 10 7 7 6 8 13 27 10 3 3 5 5 6 6 11 10 3 4 6 5 7 6 10 6 5 7 7 7 5 5 4
29 28 26 27 26 27 26 29 31 32 26 14 6 10 16 31 5 8 5 12 14 13 13 6 6 5 6 5 4 3 5 4 7 5 3 1 0 3 6 6 1 5 5 5 3 4 5
30 28 26 25 25 26 24 24 29 35 27 22 4 2 13 24 19 5 11 12 16 24 20 21 10 9 9 7 6 6 5 2 8 6 6 4 2 6 7 6 3 3 4 4 5 4 4
27 27 24 23 24 26 24 22 29 32 29 24 7 5 4 3 9 11 7 6 15 15 24 12 3 6 8 6 7 7 1 3 4 7 4 4 2 1 2 4 9 8 6 10 8 7 5
25 24 22 20 22 24 23 21 33 38 32 30 9 4 9 9 15 14 11 7 16 13 11 8 6 8 9 5 6 4 4 2 5 2 3 0 2 2 3 5 7 7 8 6 5 10 13
22 21 20 19 20 23 22 18 22 35 38 17 23 7 4 7 5 4 14 13 9 13 10 18 14 8 4 2 14 12 12 8 5 5 2 3 5 3 3 4 7 9 4 4 5 5 5
19 20 20 19 20 20 21 20 23 38 41 18 21 14 1 4 5 9 8 18 15 13 5 13 12 1 6 9 10 9 8 7 7 5 5 3 2 3 3 2 5 6 3 5 7 5 7
18 20 19 19 20 18 20 17 28 30 38 23 18 18 5 3 9 5 10 7 10 7 6 12 9 7 11 5 3 4 4 5 3 3 2 2 3 2 4 3 6 9 6 2 4 3 6
16 17 18 19 20 18 20 18 27 26 34 26 19 25 5 3 2 7 9 7 4 3 4 5 7 8 5 3 3 4 4 4 4 4 7 6 4 4 2 3 7 3 8 21 8 2 9
11 12 14 17 18 18 21 22 26 22 34 28 25 11 8 1 4 12 4 4 3 2 2 7 5 3 5 2 3 2 3 4 4 6 4 6 3 8 4 4 6 5 11 9 4 3 12
12 11 12 15 16 19 24 22 27 28 33 32 24 14 12 3 4 6 10 12 2 2 3 11 6 3 4 3 3 2 2 4 3 3 2 6 6 4 3 3 8 14 7 4 3 12 11
14 13 12 13 15 17 21 19 34 23 38 36 17 17 16 5 3 4 10 13 12 9 9 8 7 4 4 3 1 2 1 2 2 2 4 3 5 4 6 4 6 16 14 11 5 3 7
Wind_Direction
324 323 320 317 315 314 314 315 315 318 321 323 325 326 327 329 330 327 321 314 305 298 289 273 266 274 298 267 254 1 186 197 218 229 215 225 264 257 254 269 300 195 41 63 44 10 39
326 319 315 313 310 308 307 306 307 309 311 314 318 320 322 327 330 329 325 319 309 295 285 274 265 264 284 256 251 228 224 212 220 212 210 236 257 246 264 313 340 338 154 57 55 230 58
333 323 316 311 308 302 302 301 300 301 304 308 311 313 318 323 328 329 329 324 314 293 273 266 261 258 260 236 120 234 227 213 203 205 220 226 283 303 318 338 329 320 32 65 39 350 331
323 327 321 312 308 304 299 296 297 296 297 300 304 309 312 319 325 328 331 326 315 293 258 251 246 253 258 219 224 241 222 208 194 202 235 270 308 353 13 315 322 342 68 58 316 19 289
309 313 318 317 310 305 301 298 293 293 294 294 298 302 307 314 323 326 333 328 319 280 230 213 217 224 264 273 227 207 205 208 204 223 235 261 323 327 314 301 323 23 85 24 326 181 255
295 299 305 311 313 310 303 300 296 291 291 292 295 298 303 311 322 327 337 329 316 272 173 188 174 272 256 239 227 222 204 213 210 219 242 252 303 248 298 128 241 168 88 170 261 277 212
285 287 292 297 304 309 307 301 299 292 290 290 292 294 299 307 321 337 343 1 357 60 212 219 214 209 26 208 255 210 201 211 226 208 200 233 169 229 237 231 244 157 185 199 249 242 154
280 279 280 285 290 298 304 304 300 298 288 285 287 290 293 299 314 342 2 43 16 318 302 248 247 253 259 294 263 202 205 208 214 192 199 246 236 235 253 265 264 285 235 200 242 252 203
271 277 274 275 280 284 291 300 300 295 294 285 283 284 288 290 298 272 102 331 312 270 259 279 236 230 233 229 233 228 220 198 203 219 207 197 236 227 242 256 273 294 298 306 288 315 333
271 271 273 269 270 274 279 287 296 296 290 285 280 279 283 282 270 238 158 254 304 324 330 262 207 225 216 204 236 227 222 214 218 216 236 225 236 241 238 238 215 247 291 319 285 19 296
281 271 272 273 261 265 269 274 283 293 292 285 276 272 269 273 236 136 256 269 299 28 2 255 183 203 200 177 209 217 206 205 199 235 173 240 253 271 284 233 284 239 281 320 28 350 15
284 276 270 276 262 259 261 264 270 283 293 286 274 266 258 246 235 217 246 267 175 51 244 276 138 172 169 200 229 272 194 212 208 217 253 240 259 240 240 255 245 299 349 17 19 43 343
285 281 275 270 265 258 258 257 260 270 284 284 278 261 250 232 223 221 239 184 66 165 254 225 170 177 198 194 207 237 189 198 171 200 239 273 259 261 257 298 268 197 80 11 349 348 229
286 280 276 271 273 261 253 253 255 259 274 281 279 266 243 235 215 213 196 81 195 202 238 251 202 183 188 208 197 227 213 201 199 205 180 225 273 248 229 185 184 252 148 150 214 219 263
287 281 276 274 270 264 265 249 247 250 263 276 283 271 258 229 207 205 185 179 209 208 196 254 308 251 206 198 198 193 223 202 186 189 204 194 230 248 214 194 163 238 247 203 187 265 80
286 282 274 270 270 270 257 246 234 245 251 270 284 279 248 204 205 197 185 233 212 239 271 300 270 265 222 199 202 185 195 198 200 203 192 248 289 270 288 186 178 160 191 26 359 159 218
286 281 276 270 264 262 255 255 237 232 239 258 278 270 245 196 186 178 208 224 234 260 269 261 255 288 264 244 208 194 191 228 206 223 196 202 157 269 55 284 153 145 132 99 126 139 177
283 281 276 268 265 257 262 248 247 222 225 237 236 241 230 182 168 206 223 187 241 253 260 268 299 307 279 313 307 262 194 198 47 139 170 184 176 197 238 249 237 166 173 166 133 263 205
282 279 277 267 262 256 260 252 234 217 213 204 224 238 198 183 185 222 225 221 244 251 259 257 228 218 283 297 316 288 121 71 91 59 103 191 193 89 353 337 268 176 215 179 142 135 220
275 276 273 267 257 255 254 259 228 221 204 198 231 237 215 209 232 218 217 233 222 237 257 258 254 221 263 282 265 283 82 67 65 102 97 71 123 149 190 212 194 194 192 210 160 137 221
276 270 269 263 251 247 252 243 236 227 198 193 214 261 226 202 204 237 248 268 233 219 226 238 278 254 224 243 257 264 81 73 104 139 98 105 144 155 228 246 243 253 213 225 206 225 196
276 268 263 263 252 246 251 254 231 224 192 193 189 252 332 295 205 213 224 241 248 238 196 219 226 265 252 226 209 265 357 83 166 176 124 179 195 57 306 293 295 290 284 249 251 235 245
273 259 259 261 253 244 245 249 235 212 188 189 196 203 313 275 272 245 222 231 252 255 216 202 210 239 257 273 95 86 71 49 37 111 119 170 137 112 254 297 314 286 216 267 283 295 244
272 261 259 256 248 242 234 244 231 217 202 191 198 195 231 269 255 212 254 225 245 252 245 216 176 69 124 109 108 98 77 62 8 36 78 46 81 123 187 82 248 247 193 263 282 59 57
274 262 258 249 243 239 229 229 211 215 200 185 182 189 195 272 296 326 280 268 307 357 6 75 55 94 126 126 65 79 1 29 226 234 238 156 84 55 133 203 287 297 304 308 51 42 35
280 265 253 246 239 241 230 224 208 217 207 195 207 197 205 282 52 345 297 194 250 182 130 105 92 106 99 102 94 137 177 170 196 191 186 205 165 132 129 172 223 178 216 271 307 173 44
288 269 255 241 235 233 222 222 211 215 202 186 188 175 195 147 17 8 10 333 122 233 125 122 152 75 58 69 88 133 207 176 210 187 170 195 173 190 162 218 272 336 332 348 201 199 73
305 279 256 244 234 233 218 225 219 202 211 185 199 190 195 51 327 12 46 44 154 263 182 143 78 4 37 77 110 213 167 232 239 252 227 172 170 182 132 179 271 347 37 74 129 86 75
314 266 258 238 231 232 215 219 198 199 196 186 213 203 213 169 229 83 67 42 64 41 141 131 149 127 152 99 13 134 303 20 56 265 317 218 160 194 164 204 122 79 87 49 57 114 91